Starlink 6060

operational
NORAD ID: 56794 Int'l Des: 2023-078 Owner: SPXS Country: US Constellation: starlink
LEOCIRCULAR

Über Starlink 6060

Beschreibung wird geladen...

Live-Position

3D-Globus wird geladen...

Nächste Überflüge

Höhenverlauf

Altitude vs Time

uPlot chart will show altitude changes over time

Zweizeiliger Elementsatz

1 56794U 23078AD 26074.02797326 .00001007 00000-0 92157-4 0 9992
2 56794 69.9987 310.9753 0003097 274.7746 85.3060 14.98339063153978
Epoch: 15. März 2026 • Age: 12 hours

Aktueller Status

Höhe 574.3 km
Geschwindigkeit 7.57 km/s
Subsatellitenpunkt 6.15°N, 124.47°E
Startdatum 31. Mai 2023
Alter 2.7 years
Typ internet

Technische Details

Klassifizierung Payload
Masse 305.00 kg
Trockenmasse 290.00 kg
Gesamtmasse 305.00 kg
Länge 0.20 m
Durchmesser 2.80 m
Spannweite 9.00 m
Form Box + pan
Hersteller SPXS
Bus-Typ Starlink
Phasenstatus In Orbit
Besitzer/Staat SPXS/US

Große Konstellationen

Loading constellations...